Location: Karlsruhe
(49.0131°N, 8.3874°E)
Time: 15:07:31
(UTC+02:00)

ISS - Pass Details

Date: 19 May 2021
Orbit: 419 x 422 km, 51.6° (Epoch: 25 June)

Event Time Altitude Azimuth Distance (km) Brightness Sun altitude
Rises 00:20:53 0° 280° (W) 2,373 0.4 -19.9°
Reaches altitude 10° 00:23:02 10° 285° (WNW) 1,508 -0.6 -19.9°
Maximum altitude 00:26:21 53° 3° (N) 528 -3.0 -20.1°
Enters shadow 00:28:39 18° 77° (ENE) 1,112 -1.6 -20.2°
